Terminal Aerodrome Forecast
Issued by NWS Columbia, SC

Home | Current Version | Previous Version | Text Only | Print | Product List | Glossary On
Versions: 1 2 3 4 5 6 7 8 9 10 11 12 13 14 15 16 17 18 19 20 21 22 23 24 25 26 27 28 29 30 31 32 33 34 35 36 37 38 39 40 41
511
FTAK31 PAJN 261130
TAFAGS
TAF
PAGS 261130Z 2612/2712 VRB03KT P6SM SCT030 OVC080
      TEMPO 2612/2615 OVC025
     FM261800 24007KT P6SM SCT050
     FM270300 VRB05KT P6SM BKN050
     FM270800 00000KT P6SM SCT080
      AMD LTD TO CLD VIS AND WIND=

USA.gov is the U.S. government's official web portal to all federal, state and local government web resources and services.